Weather History for Tehachapi, CA

Change the Weather History Date:

Sunday, January 19, 2014

  Actual Average Record
Temperature  
Mean Temperature 48 °F -  
Max Temperature 64 °F 53 °F 64 °F (2014)
Min Temperature 32 °F 32 °F 32 °F (2014)
Degree Days  
Heating Degree Days 17    
Moisture  
Dew Point 4 °F    
Average Humidity 20    
Maximum Humidity 30    
Minimum Humidity 9    
Precipitation  
Precipitation 0.00 in - - ()
Sea Level Pressure  
Sea Level Pressure 30.20 in    
Wind  
Wind Speed 8 mph (ESE)    
Max Wind Speed 15 mph    
Max Gust Speed 21 mph    
Visibility 10 miles    
Events      
Averages and records for this station are not official NWS values.
T = Trace of Precipitation, MM = Missing Value Source: NWS Daily Summary

Daily Weather History Graph

Daily Weather History Graph

Search for Another Location

Airport:

Trip Planner

Search our weather history database for the weather conditions in past years. The results will help you decide how hot, cold, wet, or windy it might be!

Date:

Astronomy

Jan. 19, 2014 Rise Set
Actual Time 7:00 AM PST 5:09 PM PST
Civil Twilight 6:32 AM PST 5:36 PM PST
Nautical Twilight 6:01 AM PST 6:07 PM PST
Astronomical Twilight 5:31 AM PST 6:37 PM PST
Moon 8:41 PM PST (1/19) 8:41 AM PST (1/19)
Length of Visible Light 11h 03m
Length of Day
10h 08m
Waning Gibbous, 89% of the Moon is Illuminated
Jan 19
Waning Gibbous
Jan 23
Last Quarter
Jan 30
New
Feb 6
First Quarter
Feb 14
Full

Hourly Weather History & Observations

Time (PST) Temp. Windchill Dew Point Humidity Pressure Visibility Wind Dir Wind Speed Gust Speed Precip Events Conditions
12:15 AM 37.4 °F 29.8 °F 1.4 °F 22% 30.20 in 10.0 mi SE 11.5 mph - N/A   Clear
12:35 AM 35.6 °F 27.5 °F 1.4 °F 24% 30.19 in 10.0 mi SE 11.5 mph - N/A   Clear
12:55 AM 33.8 °F 25.3 °F 1.4 °F 25% 30.19 in 10.0 mi SE 11.5 mph - N/A   Clear
1:15 AM 33.8 °F 25.3 °F 1.4 °F 25% 30.19 in 10.0 mi SE 11.5 mph - N/A   Clear
1:35 AM 32.0 °F 24.8 °F 1.4 °F 27% 30.20 in 10.0 mi SE 8.1 mph - N/A   Clear
1:55 AM 33.8 °F 24.8 °F 1.4 °F 25% 30.20 in 10.0 mi SE 12.7 mph - N/A   Clear
2:15 AM 33.8 °F - 1.4 °F 25% 30.20 in 10.0 mi Calm Calm - N/A   Clear
2:35 AM 32.0 °F 25.6 °F 1.4 °F 27% 30.20 in 10.0 mi SE 6.9 mph - N/A   Clear
2:55 AM 33.8 °F 29.6 °F 1.4 °F 25% 30.20 in 10.0 mi East 4.6 mph - N/A   Clear
3:15 AM 35.6 °F 30.7 °F 1.4 °F 24% 30.20 in 10.0 mi East 5.8 mph - N/A   Clear
3:35 AM 33.8 °F 30.8 °F 1.4 °F 25% 30.20 in 10.0 mi ESE 3.5 mph - N/A   Clear
3:55 AM 33.8 °F 29.6 °F 1.4 °F 25% 30.20 in 10.0 mi ESE 4.6 mph - N/A   Clear
4:15 AM 33.8 °F 29.6 °F 1.4 °F 25% 30.20 in 10.0 mi ESE 4.6 mph - N/A   Clear
4:35 AM 35.6 °F 31.7 °F 1.4 °F 24% 30.20 in 10.0 mi East 4.6 mph - N/A   Clear
4:55 AM 32.0 °F 28.7 °F 3.2 °F 30% 30.20 in 10.0 mi ESE 3.5 mph - N/A   Clear
5:15 AM 32.0 °F - 3.2 °F 30% 30.21 in 10.0 mi Calm Calm - N/A   Clear
5:35 AM 35.6 °F 31.7 °F 1.4 °F 24% 30.21 in 10.0 mi ESE 4.6 mph - N/A   Clear
5:55 AM 33.8 °F 29.6 °F 3.2 °F 28% 30.21 in 10.0 mi ESE 4.6 mph - N/A   Clear
6:15 AM 35.6 °F 29.9 °F 1.4 °F 24% 30.21 in 10.0 mi SE 6.9 mph - N/A   Clear
6:35 AM 33.8 °F 26.4 °F 3.2 °F 28% 30.21 in 10.0 mi ESE 9.2 mph - N/A   Clear
6:55 AM 33.8 °F 26.4 °F 3.2 °F 28% 30.21 in 10.0 mi SE 9.2 mph - N/A   Clear
7:15 AM 35.6 °F - 1.4 °F 24% 30.22 in 10.0 mi Calm Calm - N/A   Clear
7:35 AM 37.4 °F 30.3 °F 3.2 °F 24% 30.22 in 10.0 mi SE 10.4 mph - N/A   Clear
7:55 AM 39.2 °F 32.5 °F 5.0 °F 24% 30.22 in 10.0 mi SE 10.4 mph - N/A   Clear
8:15 AM 37.4 °F 30.3 °F 6.8 °F 28% 30.23 in 10.0 mi SE 10.4 mph - N/A   Clear
8:35 AM 39.2 °F 33.0 °F 5.0 °F 24% 30.23 in 10.0 mi ESE 9.2 mph - N/A   Clear
8:55 AM 48.2 °F - 5.0 °F 17% 30.24 in 10.0 mi ESE 6.9 mph - N/A   Clear
9:15 AM 55.4 °F - 5.0 °F 13% 30.24 in 10.0 mi ESE 10.4 mph - N/A   Clear
9:35 AM 57.2 °F - 5.0 °F 12% 30.24 in 9.0 mi ESE 11.5 mph - N/A   Clear
9:55 AM 59.0 °F - 5.0 °F 12% 30.25 in 7.0 mi ESE 10.4 mph - N/A   Clear
10:15 AM 60.8 °F - 5.0 °F 11% 30.24 in 9.0 mi SE 12.7 mph 18.4 mph N/A   Clear
10:35 AM 62.6 °F - 5.0 °F 10% 30.24 in 10.0 mi SE 13.8 mph 18.4 mph N/A   Clear
10:55 AM 62.6 °F - 5.0 °F 10% 30.24 in 10.0 mi SE 15.0 mph 19.6 mph N/A   Clear
11:15 AM 64.4 °F - 5.0 °F 10% 30.23 in 10.0 mi SE 15.0 mph 20.7 mph N/A   Clear
11:35 AM 64.4 °F - 5.0 °F 10% 30.22 in 10.0 mi SE 13.8 mph 18.4 mph N/A   Clear
11:55 AM 64.4 °F - 5.0 °F 10% 30.22 in 9.0 mi SE 15.0 mph - N/A   Clear
12:15 PM 64.4 °F - 5.0 °F 10% 30.21 in 9.0 mi SE 11.5 mph 17.3 mph N/A   Clear
12:35 PM 64.4 °F - 5.0 °F 10% 30.20 in 10.0 mi SE 12.7 mph - N/A   Clear
12:55 PM 64.4 °F - 3.2 °F 9% 30.19 in 10.0 mi ESE 13.8 mph - N/A   Clear
1:15 PM 64.4 °F - 3.2 °F 9% 30.18 in 9.0 mi ESE 12.7 mph - N/A   Clear
1:35 PM 64.4 °F - 3.2 °F 9% 30.17 in 10.0 mi ESE 10.4 mph - N/A   Clear
1:55 PM 64.4 °F - 3.2 °F 9% 30.17 in 10.0 mi ESE 13.8 mph 17.3 mph N/A   Clear
2:15 PM 64.4 °F - 3.2 °F 9% 30.17 in 9.0 mi ESE 12.7 mph 19.6 mph N/A   Clear
2:35 PM 62.6 °F - 3.2 °F 9% 30.17 in 10.0 mi East 9.2 mph 17.3 mph N/A   Clear
2:55 PM 64.4 °F - 5.0 °F 10% 30.17 in 10.0 mi ESE 11.5 mph - N/A   Clear
3:15 PM 62.6 °F - 3.2 °F 9% 30.16 in 10.0 mi ESE 12.7 mph - N/A   Clear
3:35 PM 60.8 °F - 3.2 °F 10% 30.16 in 10.0 mi ESE 8.1 mph - N/A   Clear
3:55 PM 60.8 °F - 3.2 °F 10% 30.16 in 10.0 mi ESE 10.4 mph - N/A   Clear
4:15 PM 59.0 °F - 1.4 °F 10% 30.16 in 10.0 mi East 8.1 mph - N/A   Clear
4:55 PM 57.2 °F - 3.2 °F 11% 30.16 in 10.0 mi ESE 8.1 mph - N/A   Clear
5:15 PM 53.6 °F - 5.0 °F 14% 30.17 in 10.0 mi SE 6.9 mph - N/A   Clear
5:35 PM 48.2 °F - 3.2 °F 16% 30.17 in 10.0 mi SSE 5.8 mph - N/A   Clear
5:55 PM 48.2 °F - 5.0 °F 17% 30.18 in 10.0 mi SE 6.9 mph - N/A   Clear
6:15 PM 48.2 °F - 5.0 °F 17% 30.18 in 10.0 mi SE 5.8 mph - N/A   Clear
6:35 PM 44.6 °F 41.4 °F 6.8 °F 21% 30.19 in 10.0 mi SSE 5.8 mph - N/A   Clear
6:55 PM 44.6 °F 42.2 °F 5.0 °F 20% 30.19 in 10.0 mi ESE 4.6 mph - N/A   Clear
7:15 PM 41.0 °F 35.2 °F 5.0 °F 23% 30.19 in 10.0 mi SE 9.2 mph - N/A   Clear
7:35 PM 39.2 °F 33.6 °F 5.0 °F 24% 30.19 in 10.0 mi SE 8.1 mph - N/A   Clear
7:55 PM 41.0 °F 36.4 °F 5.0 °F 23% 30.20 in 10.0 mi ESE 6.9 mph - N/A   Clear
8:15 PM 41.0 °F 39.0 °F 5.0 °F 23% 30.20 in 10.0 mi ESE 3.5 mph - N/A   Clear
8:35 PM 41.0 °F - 5.0 °F 23% 30.20 in 10.0 mi Calm Calm - N/A   Clear
8:55 PM 39.2 °F - 5.0 °F 24% 30.20 in 10.0 mi Calm Calm - N/A   Clear
9:15 PM 39.2 °F - 5.0 °F 24% 30.21 in 10.0 mi Calm Calm - N/A   Clear
9:35 PM 37.4 °F - 5.0 °F 26% 30.21 in 10.0 mi Calm Calm - N/A   Clear
9:55 PM 39.2 °F 35.9 °F 5.0 °F 24% 30.21 in 10.0 mi SE 4.6 mph - N/A   Clear
10:15 PM 37.4 °F - 5.0 °F 26% 30.22 in 10.0 mi Calm Calm - N/A   Clear
10:35 PM 35.6 °F - 5.0 °F 28% 30.22 in 10.0 mi Calm Calm - N/A   Clear
10:55 PM 37.4 °F 34.9 °F 5.0 °F 26% 30.22 in 10.0 mi SE 3.5 mph - N/A   Clear
11:15 PM 37.4 °F 34.9 °F 5.0 °F 26% 30.22 in 10.0 mi SE 3.5 mph - N/A   Clear
11:35 PM 35.6 °F 31.7 °F 5.0 °F 28% 30.21 in 10.0 mi ESE 4.6 mph - N/A   Clear
11:55 PM 35.6 °F - 5.0 °F 28% 30.21 in 10.0 mi Calm Calm - N/A   Clear